星链-3899 (STARLINK-3899 )

导读 | 星芒AI

STARLINK-3899 是 SpaceX Starlink 卫星互联网项目中的一颗低轨卫星,属于第 11 批组网卫星(v1.5 版本)。该卫星于 2022 年 9 月发射,运行在约 550 公里的轨道高度,旨在为全球提供高速、低延迟的宽带互联网服务。Starlink 卫星采用先进推进系统和激光通信技术,支持全球覆盖和动态调整轨道。STARLINK-3899 在提升偏远地区网络接入能力方面发挥着重要作用。

基本信息
目录编号:
52457
目录名称:
STARLINK-3899
国际标识:
2022-049G
轨道中心:
EARTH
卫星名称:
星链-3899
卫星全名:
星链-3899 (STARLINK-3899 )
卫星状态:
在轨 (已飞行1278 天)
发射日期:
2022-05-06 UTC
国别 :
美国 (US)
星等 :
--
轨道信息
数据来源 国际轨道数据 AOE轨道数据
星历时间 2025-11-04T23:10:28+0800
5小时前
查看轨道信息
2025-11-03T08:00:00+0800
1天前
查看轨道信息
半长轴 6917.873km 6917.883km
偏心率 0.0001491 0.0001544
轨道倾角 53.217° 53.217°
近地点辐角 89.234° 80.617°
升交点赤经 270.514° 277.845°
平近点角 270.882° 48.439°
近地点 538.706km 538.679km
远地点 540.77km 540.817km
周期 95.437分钟 95.438分钟
每日圈数 15.088425 15.088392
详细信息
固有亮度:
5
最大亮度:
2.5
卫星平台:
Starlink v1.5
覆盖范围:
全球
运营商:
太空探索技术公司
运营商所在国:
美国
制造商(研发单位):
太空探索技术公司
制造商所在国:
美国
使用方式:
暂无
卫星简介
星链(Starlink)计划是由太空探索技术公司(SpaceX)提出的一个巨型低轨卫星互联网星座项目,计划在2019年至2024年间在太空搭建由约1.2万颗卫星组成的“星链”网络,其中1584颗将部署在地球上空550千米处的近地轨道,并从2020年开始工作。该卫星仍在工作。
2D轨道图
3D轨道图
轨道高度分析图
轨道倾角分析图
轨道综合分析图
查看轨道综合分析图